Weather observations for the past three days for
San Diego, Miramar MCAS/Mitscher Field Airport
Imperial (Metric)
Date Time (pdt) Wind (mph) Vis. (mi.) Weather Sky Cond. Temperature (ºF) Relative Humidity Wind Chill (°F) Heat Index (°F) Pressure Precipitation (in)
Air Dwpt 6 hour altimeter (in) sea level (mb) 1 hr 3 hr 6 hr
Max. Min.
21 14:55 W 8 7.00 A Few Clouds FEW080 79 63 58% 81 29.9 1011.8
21 13:55 W 6 7.00 Fair CLR 80.1 63 56% 81 29.91 1012.3
21 12:55 Vrbl 7 G 16 7.00 Fair CLR 80.1 63 56% 81 29.91 1012.3
21 11:55 SW 9 7.00 Fair CLR 79 64 60% 81 29.92 1012.6
21 10:55 SW 7 7.00 Fair CLR 80.1 64 58% 82 29.92 1012.7
21 09:55 Vrbl 3 7.00 Fair CLR 77 64 64% 79 29.92 1012.7
21 08:55 Calm 6.00 Fair CLR 73.9 64 71% 29.92 1012.4
21 07:55 S 5 5.00 A Few Clouds FEW008 71.1 64 79% 29.91 1012.1
21 06:55 Calm 3.00 Mostly Cloudy BKN006 66.9 63 87% 29.89 1011.7
21 05:55 Calm 4.00 Overcast OVC004 0 0 0% 29.88 0.0
21 04:55 Calm 4.00 Overcast OVC004 0 0 0% 29.87 0.0
21 03:55 Calm 3.00 Overcast OVC003 0 0 0% 29.87 0.0
21 02:55 N 3 4.00 Overcast OVC005 66.9 63 87% 29.88 1011.1
21 01:55 W 5 5.00 Fair CLR 64.9 62.1 90% 29.89 1011.5
21 00:55 W 5 5.00 Fair CLR 64.9 62.1 90% 29.9 1011.8
20 23:55 W 5 6.00 Fair CLR 64.9 63 93% 29.91 1012.2
20 22:55 Calm 6.00 Fair CLR 66 62.1 80.1 66 87% 29.91 1012.4
20 21:55 W 5 7.00 Fair CLR 66.9 62.1 84% 29.92 1012.4
20 20:55 W 6 8.00 Fair CLR 68 62.1 81% 29.9 1011.9
20 19:55 W 6 8.00 Fair CLR 71.1 63 76% 29.89 0.0
20 18:55 NW 6 10.00 Fair CLR 75 61 62% 77 29.88 0.0
20 17:55 W 6 10.00 Fair CLR 75.9 62.1 62% 78 29.88 0.0
20 16:55 NW 7 10.00 Fair CLR 80.1 63 84 78.1 56% 81 29.89 0.0
20 15:55 W 9 10.00 Fair CLR 81 63 54% 82 29.9 0.0
20 14:55 NW 8 9.00 Fair CLR 84 63 49% 85 29.91 1012.2
20 13:55 NW 8 8.00 Fair CLR 82 64 55% 84 29.92 1012.5
20 11:55 NW 7 8.00 Fair CLR 81 64 57% 83 29.95 1013.4
20 10:55 Vrbl 6 8.00 Fair CLR 78.1 64 62% 80 29.95 1013.7
20 09:55 Vrbl 7 6.00 Fair CLR 73.9 64.9 74% 29.96 1013.8
20 08:55 W 7 3.00 A Few Clouds FEW004 71.1 55 57% 29.95 1013.6
20 07:55 Vrbl 6 1.75 Overcast OVC002 0 0 0% 29.94 0.0
20 06:55 N 5 0.50 Overcast OVC002 0 0 0% 29.94 0.0
20 04:55 NW 3 0.25 Sky Obscured VV002 0 0 0% 29.92 0.0
20 03:55 Calm 0.50 Sky Obscured VV002 0 0 0% 29.91 0.0
20 02:55 N 5 0.25 Sky Obscured VV002 64.9 64 97% 29.92 1012.3
20 01:55 N 5 0.25 Sky Obscured VV002 64.9 64 97% 29.92 1012.7
20 00:55 NW 7 4.00 Partly Cloudy SCT004 66 64 93% 29.93 1012.7
19 23:55 N 8 6.00 Fair CLR 66 64 93% 29.94 1013.0
19 22:55 N 6 7.00 Fair CLR 66 64 80.1 66 93% 29.94 1013.3
19 21:55 NW 7 9.00 Fair CLR 66.9 63 87% 29.94 1013.2
19 20:55 NW 8 9.00 Fair CLR 66.9 63 87% 29.93 1013.0
19 19:55 NW 7 8.00 Fair CLR 69.1 63 81% 29.93 1012.8
19 18:55 NW 7 9.00 Fair CLR 73 64 74% 29.91 1012.3
19 16:55 NW 8 9.00 Fair CLR 79 64.9 82.9 78.1 62% 81 29.92 1012.7
19 15:55 NW 8 8.00 Fair CLR 79 64.9 62% 81 29.94 1013.3
19 14:55 W 9 8.00 Fair CLR 82 64.9 56% 84 29.96 1013.9
19 13:55 W 9 G 16 8.00 Fair CLR 81 64.9 58% 83 29.98 1014.5
19 12:55 W 9 8.00 Fair CLR 82 64.9 56% 84 29.98 1014.5
19 11:55 Vrbl 5 8.00 Fair with Haze CLR 81 64 57% 83 29.99 1015.1
19 10:55 N 7 6.00 Fair with Haze CLR 80.1 64 80.1 61 58% 82 29.99 1015.1
19 09:55 N 6 6.00 A Few Clouds with Haze FEW015 77 63 62% 79 29.99 1014.9
19 07:55 Calm 6.00 A Few Clouds with Haze FEW010 68 62.1 81% 29.99 1015.0
19 06:55 Calm 6.00 A Few Clouds with Haze FEW010 66 62.1 87% 29.98 1014.5
19 05:55 SW 3 3.00 Fair CLR 61 57.9 90% 29.97 1014.3
19 04:55 Calm 6.00 Overcast OVC006 64 60.1 64.9 62.1 87% 29.97 1014.2
19 02:55 Calm 6.00 Overcast OVC007 64.9 61 87% 29.97 1014.2
19 01:55 W 5 7.00 Partly Cloudy SCT008 64 60.1 87% 29.97 1014.4
19 00:55 W 3 7.00 Fair CLR 62.1 59 90% 29.99 1014.9
18 23:55 W 3 7.00 Fair CLR 63 61 93% 30 1015.2
18 22:55 W 3 9.00 Fair CLR 64.9 60.1 75.9 64 84% 30 1015.3
18 21:55 W 5 8.00 Fair CLR 64 60.1 87% 29.98 1014.8
18 20:55 W 5 9.00 Fair CLR 66 61 84% 29.97 1014.3
18 19:55 W 5 8.00 Smoke CLR 68 61 78% 29.96 1014.1
18 17:55 SW 7 6.00 Smoke FEW010 SCT020 73.9 63 69% 29.95 1013.7
18 16:55 W 6 8.00 Smoke SCT020 75 63 82 75 66% 77 29.96 1014.0
18 15:55 W 8 6.00 Smoke FEW015 SCT050CB 77 63 62% 79 29.97 1014.1
Date Time (pdt) Wind (mph) Vis. (mi.) Weather Sky Cond. Air Dwpt Max. Min. Relative Humidity Wind Chill (°F) Heat Index (°F) altimeter (in) sea level (mb) 1 hr 3 hr 6 hr
6 hour
Temperature (ºF) Pressure Precipitation (in)